NOAA 16 DEB, 41365

Orbit data source: Space-Track

NOAA 16 DEB, 41365 is space debris in SSO originally from a launch on Thu, 21 Sep 2000 UTC launched from the Air Force Western Test Range (AFWTR). Debris objects in space refer to the collection of defunct objects orbiting the Earth. Examples of debris include non-operational satellites, rocket bodies, and fragments generated from explosions, collisions, or faulty payload assembly.

Loading next visibility...
Identifier
41365, 2000-055JJ
Orbit
SSO
Country
Flag of USUS
Related business
Manufacturer
Unknown
Mission
Spacecraft
Bus & Motor
Unknown
Mass
Unknown
Launch date (UTC)
2000-09-21 (26 years ago)
Launch vehicle
Unknown
Launch site
Air Force Western Test Range (AFWTR)
Object type
Payload
Rocket body
Debris
Shape & HBR
Unknown shape, 0.1 m
Radar Cross Section
Small (<0.1 m²)

Expand to show TLE details & history
Last TLE update: 1 day ago

TLE from 1 day ago
0 NOAA 16 DEB
1 41365U 00055JJ  26123.48318655  .00010441  00000-0  22946-2 0  9998
2 41365  98.9300 309.4103 0025044 243.7029 116.1594 14.57533680533080
Epoch: 2026-05-03T11:35Z
TLE epoch observation values (Epoch: 2026-05-03T11:35:47.317Z)
Latitude
-0.00008°
Longitude
-85.92293°
Altitude
711.961 km
Speed
7.496 km/s
True Right ascension
20h 37m 38s
True Declination
0° 00' 00"
Sunlit
Object was in daylight at epoch
Visualization orbit readout
Latitude
Unknown
Longitude
Unknown
Altitude
Unknown
Speed
Unknown
Apparent Right ascension
Unknown
Apparent Declination
Unknown
Sunlit
N/A
Visualization observer readout
Local Sidereal Time
19:35:16
Azimuth
Unknown
Elevation
Unknown
Doppler factor
Unknown
Orbital elements
Apogee altitude
715.99 km
Perigee altitude
680.546 km
Semi-major axis
7,076.405 km
Eccentricity
0.0025
Inclination
98.93°
RAAN
309.4103°
Arg. of periapsis
243.7029°
True anomaly
116.41663°
Mean anomaly
116.1594°
Eccentric anomaly
116.28805°
Mean motion
3.64606 °/min
Orbital period
98.74 mins
BSTAR
0.0022946
Loading maneuver chart data...
Computing Atmospheric mass density...
Loading historical data...
Loading historical data...
Loading historical data...
Loading historical data...
Loading historical data...
Loading historical data...
Loading historical data...

Documentation

Showing up to 5 results
|